Simultaneous Nadir Overpasses (SNOs) Predictions

Prediction of SNOs between LANDSAT-8 and NOAA-19 Satellite Orbit:

Table of predicted SNOs for the next 14.0 days since TLE Epoch: 4/5/2025
Index Date (LANDSAT-8) Time (LANDSAT-8) Lat,Lon (LANDSAT-8) SZA (LANDSAT-8 ) Date (NOAA-19) Time (NOAA-19) Lat,Lon (NOAA-19) SZA (NOAA-19 ) Distance(km) Time Diff (sec)
1 04/06/2025 13:55:12 79.26, -6.81 73.28 04/06/2025 13:55:02 79.26, -6.75 73.29 1.25 10
2 04/06/2025 14:43:50 -80.90, 175.37 104.09 04/06/2025 14:45:04 -80.57, 176.22 104.24 39.26 74
3 04/08/2025 20:18:26 79.05,-103.90 72.16 04/08/2025 20:17:20 79.04,-104.02 72.13 2.90 66
4 04/08/2025 21:07:48 -79.25, 65.00 107.58 04/08/2025 21:08:07 -79.25, 64.95 107.58 1.04 19
5 04/11/2025 03:31:00 -79.10, -31.74 108.61 04/11/2025 03:30:23 -79.09, -31.83 108.63 2.21 37
6 04/11/2025 04:20:21 79.29, 137.10 71.65 04/11/2025 04:21:20 79.29, 136.99 71.65 2.40 59
7 04/13/2025 10:43:32 79.15, 40.44 70.64 04/13/2025 10:43:35 79.15, 40.34 70.63 2.15 3
8 04/15/2025 17:06:41 79.03, -56.12 69.67 04/15/2025 17:05:48 79.03, -56.10 69.65 0.45 53
9 04/15/2025 17:56:04 -79.20, 112.55 110.12 04/15/2025 17:56:37 -79.20, 112.51 110.11 0.84 33
10 04/18/2025 00:19:14 -79.05, 15.85 111.11 04/18/2025 00:18:52 -79.04, 15.82 111.12 0.63 22



Historial Predications of SNOs between LANDSAT-8 and NOAA-19
